Weather History for Livermore, CA

Change the Weather History Date:

Sunday, November 9, 2014

  Actual Average Record
Temperature  
Mean Temperature 64 °F 56 °F  
Max Temperature 82 °F 67 °F 85 °F (1955)
Min Temperature 46 °F 44 °F 29 °F (1975)
Degree Days  
Heating Degree Days 1 9  
Month to date heating degree days 44 72  
Since 1 July heating degree days 74 200  
Cooling Degree Days 0 0  
Month to date cooling degree days 0 0  
Year to date cooling degree days 1268 829  
Growing Degree Days 14 (Base 50)    
Moisture  
Dew Point 45 °F    
Average Humidity 53    
Maximum Humidity 77    
Minimum Humidity 28    
Precipitation  
Precipitation 0.00 in 0.07 in 1.07 in (2003)
Month to date precipitation 0.00 0.61  
Year to date precipitation 5.28 11.66  
Since 1 July precipitation 0.40 1.76  
Sea Level Pressure  
Sea Level Pressure 29.91 in    
Wind  
Wind Speed 1 mph (WNW)    
Max Wind Speed 9 mph    
Max Gust Speed 12 mph    
Visibility 10 miles    
Events      
T = Trace of Precipitation, MM = Missing Value Source: NWS Daily Summary

Daily Weather History Graph

Daily Weather History Graph

Search for Another Location

Airport:

Trip Planner

Search our weather history database for the weather conditions in past years. The results will help you decide how hot, cold, wet, or windy it might be!

Date:

Astronomy

Nov. 09, 2014 Rise Set
Actual Time 6:40 AM PST 5:00 PM PST
Civil Twilight 6:13 AM PST 5:28 PM PST
Nautical Twilight 5:42 AM PST 5:59 PM PST
Astronomical Twilight 5:11 AM PST 6:30 PM PST
Moon 7:39 PM PST (11/9) 9:17 AM PST (11/9)
Length of Visible Light 11h 14m
Length of Day
10h 19m
Waning Gibbous, 90% of the Moon is Illuminated
Nov 9
Waning Gibbous
Nov 14
Last Quarter
Nov 22
New
Nov 29
First Quarter
Dec 6
Full

Hourly Weather History & Observations

Time (PST) Temp. Dew Point Humidity Pressure Visibility Wind Dir Wind Speed Gust Speed Precip Events Conditions
12:53 AM 52.0 °F 42.1 °F 69% 30.03 in 10.0 mi East 3.5 mph - N/A   Clear
1:53 AM 53.1 °F 43.0 °F 69% 30.02 in 10.0 mi Calm Calm - N/A   Clear
2:53 AM 51.1 °F 42.1 °F 71% 30.00 in 10.0 mi Calm Calm - N/A   Clear
3:53 AM 50.0 °F 42.1 °F 74% 29.99 in 10.0 mi Calm Calm - N/A   Clear
4:53 AM 50.0 °F 41.0 °F 71% 29.99 in 10.0 mi Calm Calm - N/A   Clear
5:53 AM 48.9 °F 41.0 °F 74% 29.99 in 10.0 mi Calm Calm - N/A   Clear
6:53 AM 48.0 °F 39.9 °F 74% 29.99 in 10.0 mi Calm Calm - N/A   Clear
7:53 AM 53.1 °F 43.0 °F 69% 29.99 in 10.0 mi Calm Calm - N/A   Clear
8:53 AM 59.0 °F 45.0 °F 60% 29.98 in 10.0 mi Calm Calm - N/A   Clear
9:53 AM 64.0 °F 45.0 °F 50% 29.98 in 10.0 mi Calm Calm - N/A   Clear
10:53 AM 71.1 °F 45.0 °F 39% 29.96 in 10.0 mi Calm Calm - N/A   Clear
11:53 AM 75.0 °F 46.0 °F 36% 29.91 in 10.0 mi Calm Calm - N/A   Clear
12:53 PM 78.1 °F 42.1 °F 28% 29.87 in 10.0 mi Calm Calm - N/A   Clear
1:53 PM 79.0 °F 45.0 °F 30% 29.85 in 10.0 mi Calm Calm - N/A   Clear
2:53 PM 81.0 °F 46.0 °F 29% 29.83 in 10.0 mi SW 5.8 mph - N/A   Clear
3:53 PM 80.1 °F 51.1 °F 36% 29.83 in 10.0 mi West 9.2 mph - N/A   Clear
4:53 PM 73.9 °F 51.1 °F 45% 29.81 in 10.0 mi Calm Calm - N/A   Clear
5:53 PM 72.0 °F 52.0 °F 49% 29.82 in 10.0 mi NW 5.8 mph - N/A   Clear
6:53 PM 66.9 °F 51.1 °F 57% 29.83 in 10.0 mi West 3.5 mph - N/A   Clear
7:53 PM 64.0 °F 52.0 °F 65% 29.83 in 10.0 mi Calm Calm - N/A   Clear
8:53 PM 60.1 °F 46.9 °F 62% 29.82 in 10.0 mi ENE 3.5 mph - N/A   Clear
9:53 PM 60.1 °F 46.9 °F 62% 29.82 in 10.0 mi Calm Calm - N/A   Clear
10:53 PM 57.0 °F 46.0 °F 67% 29.83 in 10.0 mi Calm Calm - N/A   Clear
11:53 PM 55.9 °F 46.0 °F 69% 29.83 in 10.0 mi Calm Calm - N/A   Clear